Location: Bonn
(50.7330°N, 7.1000°E)
Time: 22:44:57
(UTC+01:00)

Iridium 67 - Visible Passes

Search period start: 07 February 2016 00:00
Search period end: 17 February 2016 00:00
Orbit: 776 x 779 km, 86.4° (Epoch: 07 February)

Date Brightness Start Highest point End Pass type
(mag) Time Alt. Az. Time Alt. Az. Time Alt. Az.
07 Feb 8.4 06:07:12 10° NNE 06:10:16 15° ENE 06:13:19 10° ESE visible
07 Feb 6.7 19:14:39 23° ENE 19:14:39 23° ENE 19:17:35 10° NNE visible
07 Feb 6.5 20:48:42 10° SSW 20:54:55 44° NW 20:58:54 10° N visible
08 Feb 6.4 07:13:03 10° N 07:18:12 54° E 07:23:18 10° SSE visible
08 Feb 7.0 18:37:16 10° ESE 18:40:13 15° ENE 18:43:09 10° NE visible
08 Feb 5.4 20:14:57 10° S 20:20:11 87° W 20:25:27 10° N visible
08 Feb 8.2 21:58:50 10° W 22:01:45 15° WNW 22:04:40 10° NNW visible
09 Feb 7.4 06:39:45 10° NNE 06:44:29 33° ENE 06:49:10 10° SE visible
09 Feb 5.5 19:41:37 10° SSE 19:46:42 56° E 19:51:48 10° NNE visible
09 Feb 7.6 21:23:37 10° SW 21:27:48 24° WNW 21:32:00 10° NNW visible
10 Feb 8.2 06:06:44 10° NNE 06:10:38 21° ENE 06:14:29 10° ESE visible
10 Feb 6.1 19:08:42 10° SE 19:13:20 34° E 19:17:59 10° NNE visible
10 Feb 6.8 20:49:09 10° SW 20:53:59 38° WNW 20:58:53 10° N visible
11 Feb 8.5 05:34:22 10° NE 05:36:38 13° ENE 05:38:54 10° E visible
11 Feb 5.8 07:13:06 10° N 07:18:21 75° E 07:23:34 10° S visible
11 Feb 6.7 18:36:18 10° SE 18:40:04 21° ENE 18:43:52 10° NNE visible
11 Feb 5.9 20:15:08 10° SSW 20:20:19 64° W 20:25:32 10° N visible
11 Feb 8.6 22:00:50 10° WNW 22:02:10 11° WNW 22:03:30 10° NW visible
12 Feb 6.8 06:39:41 10° N 06:44:42 44° E 06:49:41 10° SSE visible
12 Feb 5.4 19:41:33 10° S 19:46:45 77° E 19:51:59 10° N visible
12 Feb 8.1 21:24:37 10° WSW 21:28:08 18° WNW 21:31:41 10° NNW visible
13 Feb 7.7 06:06:29 10° NNE 06:10:56 27° ENE 06:15:21 10° SE visible
13 Feb 5.7 19:08:22 10° SSE 19:13:19 46° E 19:18:18 10° NNE visible
13 Feb 7.4 20:49:45 10° SW 20:54:14 29° WNW 20:58:46 10° NNW visible
14 Feb 8.4 05:33:38 10° NNE 05:37:02 17° ENE 05:40:24 10° ESE visible
14 Feb 6.4 18:35:38 10° SE 18:40:00 28° E 18:44:22 10° NNE visible
14 Feb 6.5 20:15:28 10° SSW 20:20:29 47° W 20:25:32 10° N visible
15 Feb 8.8 05:02:15 10° NE 05:02:59 10° ENE 05:03:42 10° ENE visible
15 Feb 6.2 06:39:42 10° N 06:44:53 61° E 06:50:03 10° SSE visible
15 Feb 5.6 19:41:38 10° S 19:46:51 79° W 19:52:06 10° N visible
15 Feb 8.5 21:26:01 10° W 21:28:31 13° WNW 21:31:02 10° NW visible
16 Feb 7.2 06:06:21 10° N 06:11:12 36° ENE 06:16:00 10° SE visible
16 Feb 5.5 19:08:12 10° S 19:13:20 63° E 19:18:31 10° N visible
16 Feb 7.9 20:50:34 10° WSW 20:54:33 22° WNW 20:58:32 10° NNW visible
